www.pogodaiklimat.ru

Погода и климат >> Архив погоды >> Россия >> Камчатский край >> Мильково


ПОГОДА в Мильково

  • Прогноз погоды в Мильково
  • Монитор погоды в Мильково

АРХИВ ПОГОДЫ в Мильково

Время (UTC), дата Ветер
(напр.,м/с)
 
Видим.   Явления Облачность Т
(С)
Тd
(С)
f
(%)
Тe
(С)
Тes
(С)
Комфортность P
(гПа)
Po
(гПа)
Тmin
(С)
Tmax
(С)
R
(мм)
R24
(мм)
S
(см)
21 15.09 З 1 20 км в посл. час туман 3/3 600 м
[Sc]
+3.8 +3.4 97 +2 +3 1019.4 998.5 -0.6
00 16.09 В 1 50 км {туман} ясно +13.3 +4.1 54 +14 +22 1018.6 998.5
03 16.09 В 1 50 км ясно +16.8 -0.9 30 +18 +25 1017.2 997.3
06 16.09 В 1 50 км ясно +17.3 -8.0 17 +18 +20 1017.2 997.3
09 16.09 штиль 0 20 км ясно +4.7 +0.8 76 +4 +4 1019.5 998.7 +18.5
12 16.09 З 1 20 км ясно +1.9 -0.4 85 0 0 1021.0 1000.0
15 16.09 штиль 0 20 км ясно -1.0 -2.1 92 -2 -2 1021.2 1000.0
18 16.09 З 1 20 км 6/0
[Ci fib]
-1.9 -2.5 96 -4 -4 1020.0 998.7
21 16.09 штиль 0 50 км 8/3 1000 м
[Sc Ci fib]
+1.6 -0.3 87 +1 +2 1018.1 997.1 -2.3
00 17.09 В 1 50 км 4/3 1000 м
[Sc Ci fib]
+11.8 +0.7 46 +12 +17 1014.6 994.4
03 17.09 СВ 1 50 км 10 баллов +16.8 +0.4 33 +18 +18 1011.8 992.0
06 17.09 СВ 2 50 км 10/8 1000 м
[Cb cap Ac trans Ci fib]
+16.2 +2.2 39 +16 +16 1009.0 989.3
09 17.09 Ю 1 20 км 10/8 1000 м
[Cb cap Ac trans]
+12.0 +1.5 49 +12 +12 1008.2 988.2 +18.1
12 17.09 Ю 2 20 км 8/6 1000 м
[Cb cap Ci fib]
+8.6 +1.7 62 +7 +7 1008.3 988.0
15 17.09 штиль 0 20 км 8/4 1000 м
[Cb cap Ci sp]
+3.2 +1.4 88 +2 +2 1008.7 988.0
18 17.09 штиль 0 20 км 10/6 1000 м
[Sc Ci sp]
+2.4 +1.2 92 +1 +1 1007.4 986.7
21 17.09 штиль 0 50 км 10/4 1000 м
[Sc Ac trans Ci sp]
+3.8 +2.9 94 +3 +3 1007.1 986.5 +1.5
00 18.09 штиль 0 50 км 10/5 1000 м
[Sc Ac trans]
+10.1 +2.7 60 +10 +11 1007.5 987.3
03 18.09 Ю 1 50 км 10/5 1000 м
[Sc Cs]
+12.6 +1.0 45 +13 +13 1008.0 988.0
06 18.09 штиль 0 50 км 10/5 1000 м
[Sc Ac trans]
+12.1 +2.3 51 +12 +12 1008.0 988.0
09 18.09 штиль 0 20 км 10/6 1000 м
[Sc Ac und]
+6.7 +4.4 85 +6 +6 1009.7 989.3 +12.8
12 18.09 штиль 0 20 км 10/6 1000 м
[Sc Ac und]
+4.6 +3.7 94 +3 +3 1011.3 990.7
15 18.09 штиль 0 20 км 10/4 1000 м
[Sc Ac trans Ci sp]
+3.8 +3.1 95 +3 +3 1011.4 990.7
18 18.09 штиль 0 20 км 10/4 1000 м
[Sc Ac trans Ci sp]
+2.4 +1.8 96 +1 +1 1011.5 990.7
21 18.09 Ю 1 50 км 10/4 1000 м
[Sc Ac trans Ci sp]
+4.1 +3.5 96 +3 +3 1010.9 990.3 +1.5
00 19.09 ЮЗ 1 50 км 10/3 1000 м
[Sc Ac trans Ci fib]
+14.5 +3.7 48 +15 +18 1009.5 989.6
03 19.09 Ю 1 50 км 8/4 1000 м
[Sc diur, vesp Ci fib]
+17.9 +2.2 35 +19 +21 1008.9 989.3
06 19.09 СВ 2 50 км 8/6 1000 м
[Sc diur, vesp Ci fib]
+16.1 +3.8 44 +16 +17 1009.0 989.3
09 19.09 штиль 0 20 км 10/6 1000 м
[Sc Ci fib]
+12.8 +5.2 60 +13 +13 1009.3 989.3 +19.1
12 19.09 СВ 1 20 км 8/6 1000 м
[Sc Ci fib]
+9.6 +5.6 76 +9 +9 1010.9 990.7
15 19.09 штиль 0 20 км 8/4 1000 м
[Sc Ci fib]
+5.1 +3.8 91 +4 +4 1011.3 990.7
18 19.09 З 1 20 км 6/4 1000 м
[Sc Ci fib]
+2.1 +1.4 95 0 0 1011.5 990.7
21 19.09 штиль 0 50 км 10/4 1000 м
[Sc Ac trans Ci sp]
+4.9 +4.1 95 +4 +4 1011.0 990.4 +2.0
00 20.09 СВ 2 50 км 10/3 1000 м
[Sc Ac trans Ci fib]
+11.0 +3.8 61 +10 +12 1009.4 989.3
03 20.09 В 2 50 км 10 баллов +12.7 +4.4 57 +12 +12 1008.0 988.0
06 20.09 В 2 20 км слаб. ливневой дождь 10/8 1000 м
[Cb cap Ac und]
+10.5 +7.6 82 +9 +9 1008.1 988.0
09 20.09 С 2 10 км слаб. ливневой дождь 10/10 600 м
[Cb cap]
+8.7 +7.2 90 +7 +7 1008.2 988.0 +13.1 1
12 20.09 СВ 3 10 км слаб. ливневой дождь 10/10 1000 м
[Cb cap]
+8.2 +6.5 89 +5 +5 1007.8 987.5
15 20.09 СВ 2 20 км {ливн. осадки} 10/6 1000 м
[Cb cap Ac und]
+7.1 +5.4 89 +5 +5 1008.3 988.0
18 20.09 СВ 2 10 км в посл. час ливневой дождь 10/10 1000 м
[Cb cap]
+6.9 +6.2 95 +5 +5 1008.4 988.0
21 20.09 С 3 10 км слаб. ливневой дождь 10/10 600 м
[Cb cap]
+6.6 +5.1 90 +3 +3 1008.5 988.1 +6.5 0.8
00 21.09 СВ 2 10 км слаб. ливневой дождь 10/10 600 м
[Cb cap]
+8.1 +5.1 81 +6 +6 1009.1 988.8
03 21.09 В 2 20 км осадки на расстоянии {ливн. осадки} 10/8 600 м
[Cb cap Ac und]
+10.0 +5.3 73 +9 +9 1008.9 988.7
06 21.09 Ю 1 50 км {ливн. осадки} 4/4 1000 м
[Sc]
988.6
09 21.09 штиль 0 20 км 4/4 1000 м
[Sc]
+4.7 +3.4 91 +4 +4 1012.6 992.0 +11.5 0.0
12 21.09 штиль 0 20 км 10/4 1000 м
[Sc Ac trans Ci sp]
+4.0 +3.3 95 +3 +3 1012.7 992.0
15 21.09 З 1 20 км 10/4 1000 м
[Sc Ac trans Ci sp]
+1.8 +1.4 97 -0 -0 1014.2 993.3
18 21.09 З 1 500 м туман 3/3 1000 м
[Sc]
-0.7 -0.8 99 -3 -3 1015.8 994.7
21 21.09 Ю 1 500 м туман 3/3 1000 м
[Sc]
-0.4 -0.6 99 -3 -2 1016.0 994.9 -2.1
00 22.09 Ю 1 50 км {туман} 4/3 1000 м
[Sc Ci fib]
+11.5 +3.2 57 +12 +16 1014.5 994.3
03 22.09 ЮВ 2 50 км 7 баллов +14.7 -1.0 34 +15 +16 1013.2 993.3
06 22.09 ЮВ 1 50 км 10 баллов +12.2 +3.7 56 +12 +12 1013.4 993.3
09 22.09 штиль 0 20 км 8/4 1000 м
[Sc Ci fib]
+3.5 +1.7 88 +2 +2 1014.0 993.3 +15.4
12 22.09 СЗ 1 20 км 6 баллов +2.1 +0.8 91 0 0 1014.2 993.3
15 22.09 штиль 0 20 км 6 баллов +1.1 +0.1 93 -0 -0 1014.2 993.3

 

Местоположение метеостанции Мильково (Камчатский край, Россия): широта 54.68 долгота 158.50 высота над уровнем моря 168 м.

В архиве по умолчанию представлена погода в Мильково за последнюю неделю. Архивные данные за месяц целиком и за предыдущие месяцы, начиная с января 2011 года, Вы можете получить, выбрав интересующий диапазон дат из раскрывающегося списка и нажав кнопку "Ввод!".


*Определитесь, кто Вы:
робот инопланетянин человек

Внимание! Время в таблицах - всемирное. Для получения местного времени необходимо прибавить поправку, которая равна 12 ч.

Смотрите также архив погоды в соседних городах и на ближайших метеорологических станциях:

Погода в Долиновке (Камчатский край, Россия) (58 км)
Погода в Пущино (Камчатский край, Россия) (64 км)
Погода в Семячике (Камчатский край, Россия) (110 км)
Погода в Эссо (Камчатский край, Россия) (140 км)
Погода в Козыревске (Камчатский край, Россия) (173 км)
Погода в Соболево (Камчатский край, Россия) (173 км)
Погода в Петропавловск-Камч. 2 (Камчатский край, Россия) (178 км)
Погода в Сосновке (Камчатский край, Россия) (178 км)
Погода в Начиках (Камчатский край, Россия) (181 км)
Погода в Петропавловском Маяке (Камчатский край, Россия) (201 км)

Пояснения к столбцам:

Ветер - указаны скорость ветра в м/с - средняя за 10 мин, порывы в срок и между сроками (в фигурных скобках) и направление, откуда дует ветер: С - северный, СВ - северо-восточный, В - восточный, ЮВ - юго-восточный, Ю - южный, ЮЗ - юго-западный, З - западный, СЗ - северо-западный.
Видимость - горизонтальная дальность видимости в метрах или километрах. При видимости от 1 до 10 км при отсутствии осадков обычно наблюдается дымка, при ухудшении видимости до 1 км и менее - туман. В сухую погоду видимость может ухудшаться дымом, пылью или мглою.
Явления - указаны атмосферные явления, наблюдавшиеся в срок или в последний час перед сроком; фигурными скобками обозначены явления, наблюдавшиеся между сроками (за 1-3 часа до срока); квадратными скобками обозначены град или гололедные отложения с указанием их диаметра в мм.
Облачность - указаны через наклонную черту общая и нижняя облачность в баллах и высота нижней границы облаков в метрах; квадратными скобками обозначены формы облаков: Ci - перистые, Cs - перисто-слоистые, Cc - перисто-кучевые, Ac - высококучевые, As - высокослоистые, Sc - слоисто-кучевые, Ns - слоисто-дождевые, Cu - кучевые, Cb - кучево-дождевые. Подробнее классификацию облаков см. в Атласе облаков (PDF).
T - Температура воздуха - температура, измеренная на высоте 2 м над землей.
Td - Температура точки росы - температура, при понижении до которой содержащийся в воздухе водяной пар достигнет насыщения.
f - Относительная влажность воздуха - влажноcть воздуха, измеренная на высоте 2 м над землей.
Te - Эффективная температура - температура, которую ощущает одетый по сезону человек в тени. Характеристика душности погоды. При расчете учитывается влияние влажности воздуха и скорости ветра на теплоощущения человека.
Tes - Эффективная температура на солнце - температура, которую ощущает человек, с поправкой на солнечный нагрев. Характеристика знойности погоды. Зависит от высоты солнца над горизонтом, облачности и скорости ветра. Ночью, в пасмурную погоду, а также при ветре 12 м/с и более поправка равна нулю.
P - Атмосферное давление - приведенное к уровню моря атмосферное давление.
Po - Атмосферное давление - измеренное на уровне метеостанции атмосферное давление.
Tmin - Минимальная температура - минимум температуры воздуха на высоте 2 м над землей.
Tmax - Максимальная температура - максимум температуры воздуха на высоте 2 м над землей.
R - Количество осадков - Количество выпавших осадков за период времени, мм. При наведении курсора мыши на число - период времени, за который выпало указанное количество осадков.
R24 - Количество осадков - Количество выпавших осадков за 24 часа, мм.
S - Снежный покров - Высота снежного покрова, см. При наведении курсора мыши на число - состояние снежного покрова и степень покрытия местности в баллах.